Year,Month,Day,Hour,Minute,Value (Times are PST for temperature in C)
2008,07,14,00,00,11.90
2008,07,14,00,01,11.90
2008,07,14,00,02,11.90
2008,07,14,00,03,11.80
2008,07,14,00,04,11.80
2008,07,14,00,05,11.80
2008,07,14,00,06,11.80
2008,07,14,00,07,11.80
2008,07,14,00,08,11.80
2008,07,14,00,09,11.80
2008,07,14,00,10,11.80
2008,07,14,00,11,11.80
2008,07,14,00,12,11.80
2008,07,14,00,13,11.80
2008,07,14,00,14,11.80
2008,07,14,00,15,11.80
2008,07,14,00,16,11.80
2008,07,14,00,17,11.70
2008,07,14,00,18,11.80
2008,07,14,00,19,11.80
2008,07,14,00,20,11.80
2008,07,14,00,21,11.80
2008,07,14,00,22,11.80
2008,07,14,00,23,11.80
2008,07,14,00,24,11.80
2008,07,14,00,25,11.80
2008,07,14,00,26,11.80
2008,07,14,00,27,11.80
2008,07,14,00,28,11.70
2008,07,14,00,29,11.70
2008,07,14,00,30,11.70
2008,07,14,00,31,11.70
2008,07,14,00,32,11.70
2008,07,14,00,33,11.60
2008,07,14,00,34,11.60
2008,07,14,00,35,11.60
2008,07,14,00,36,11.60
2008,07,14,00,37,11.60
2008,07,14,00,38,11.60
2008,07,14,00,39,11.60
2008,07,14,00,40,11.70
2008,07,14,00,41,11.70
2008,07,14,00,42,11.70
2008,07,14,00,43,11.80
2008,07,14,00,44,11.80
2008,07,14,00,45,11.80
2008,07,14,00,46,11.90
2008,07,14,00,47,11.90
2008,07,14,00,48,11.90
2008,07,14,00,49,12.00
2008,07,14,00,50,12.00
2008,07,14,00,51,12.10
2008,07,14,00,52,12.10
2008,07,14,00,53,12.10
2008,07,14,00,54,12.10
2008,07,14,00,55,12.10
2008,07,14,00,56,12.20
2008,07,14,00,57,12.20
2008,07,14,00,58,12.20
2008,07,14,00,59,12.20
2008,07,14,01,00,12.20
2008,07,14,01,01,12.20
2008,07,14,01,02,12.20
2008,07,14,01,03,12.20
2008,07,14,01,04,12.30
2008,07,14,01,05,12.30
2008,07,14,01,06,12.30
2008,07,14,01,07,12.30
2008,07,14,01,08,12.30
2008,07,14,01,09,12.30
2008,07,14,01,10,12.30
2008,07,14,01,11,12.30
2008,07,14,01,12,12.30
2008,07,14,01,13,12.40
2008,07,14,01,14,12.40
2008,07,14,01,15,12.40
2008,07,14,01,16,12.50
2008,07,14,01,17,12.50
2008,07,14,01,18,12.60
2008,07,14,01,19,12.60
2008,07,14,01,20,12.70
2008,07,14,01,21,12.70
2008,07,14,01,22,12.80
2008,07,14,01,23,12.90
2008,07,14,01,24,12.90
2008,07,14,01,25,13.00
2008,07,14,01,26,13.10
2008,07,14,01,27,13.10
2008,07,14,01,28,13.10
2008,07,14,01,29,13.20
2008,07,14,01,30,13.20
2008,07,14,01,31,13.20
2008,07,14,01,32,13.20
2008,07,14,01,33,13.20
2008,07,14,01,34,13.20
2008,07,14,01,35,13.20
2008,07,14,01,36,13.20
2008,07,14,01,37,13.20
2008,07,14,01,38,13.20
2008,07,14,01,39,13.20
2008,07,14,01,40,13.20
2008,07,14,01,41,13.10
2008,07,14,01,42,13.10
2008,07,14,01,43,13.10
2008,07,14,01,44,13.10
2008,07,14,01,45,13.10
2008,07,14,01,46,13.00
2008,07,14,01,47,13.00
2008,07,14,01,48,12.90
2008,07,14,01,49,12.90
2008,07,14,01,50,12.90
2008,07,14,01,51,12.90
2008,07,14,01,52,12.80
2008,07,14,01,53,12.80
2008,07,14,01,54,12.80
2008,07,14,01,55,12.80
2008,07,14,01,56,12.80
2008,07,14,01,57,12.80
2008,07,14,01,58,12.80
2008,07,14,01,59,12.80
2008,07,14,02,00,12.80
2008,07,14,02,01,12.80
2008,07,14,02,02,12.80
2008,07,14,02,03,12.80
2008,07,14,02,04,12.80
2008,07,14,02,05,12.80
2008,07,14,02,06,12.80
2008,07,14,02,07,12.80
2008,07,14,02,08,12.80
2008,07,14,02,09,12.80
2008,07,14,02,10,12.80
2008,07,14,02,11,12.80
2008,07,14,02,12,12.80
2008,07,14,02,13,12.80
2008,07,14,02,14,12.80
2008,07,14,02,15,12.80
2008,07,14,02,16,12.80
2008,07,14,02,17,12.80
2008,07,14,02,18,12.80
2008,07,14,02,19,12.80
2008,07,14,02,20,12.70
2008,07,14,02,21,12.70
2008,07,14,02,22,12.70
2008,07,14,02,23,12.70
2008,07,14,02,24,12.80
2008,07,14,02,25,12.80
2008,07,14,02,26,12.80
2008,07,14,02,27,12.80
2008,07,14,02,28,12.80
2008,07,14,02,29,12.80
2008,07,14,02,30,12.80
2008,07,14,02,31,12.90
2008,07,14,02,32,12.90
2008,07,14,02,33,12.90
2008,07,14,02,34,12.90
2008,07,14,02,35,12.90
2008,07,14,02,36,12.90
2008,07,14,02,37,12.80
2008,07,14,02,38,12.80
2008,07,14,02,39,12.80
2008,07,14,02,40,12.80
2008,07,14,02,41,12.80
2008,07,14,02,42,12.70
2008,07,14,02,43,12.70
2008,07,14,02,44,12.70
2008,07,14,02,45,12.70
2008,07,14,02,46,12.70
2008,07,14,02,47,12.70
2008,07,14,02,48,12.70
2008,07,14,02,49,12.60
2008,07,14,02,50,12.60
2008,07,14,02,51,12.60
2008,07,14,02,52,12.50
2008,07,14,02,53,12.50
2008,07,14,02,54,12.50
2008,07,14,02,55,12.50
2008,07,14,02,56,12.40
2008,07,14,02,57,12.40
2008,07,14,02,58,12.40
2008,07,14,02,59,12.40
2008,07,14,03,00,12.30
2008,07,14,03,01,12.30
2008,07,14,03,02,12.30
2008,07,14,03,03,12.30
2008,07,14,03,04,12.30
2008,07,14,03,05,12.30
2008,07,14,03,06,12.30
2008,07,14,03,07,12.30
2008,07,14,03,08,12.30
2008,07,14,03,09,12.30
2008,07,14,03,10,12.30
2008,07,14,03,11,12.30
2008,07,14,03,12,12.30
2008,07,14,03,13,12.30
2008,07,14,03,14,12.20
2008,07,14,03,15,12.20
2008,07,14,03,16,12.20
2008,07,14,03,17,12.20
2008,07,14,03,18,12.20
2008,07,14,03,19,12.20
2008,07,14,03,20,12.20
2008,07,14,03,21,12.10
2008,07,14,03,22,12.10
2008,07,14,03,23,12.10
2008,07,14,03,24,12.10
2008,07,14,03,25,12.10
2008,07,14,03,26,12.10
2008,07,14,03,27,12.10
2008,07,14,03,28,12.10
2008,07,14,03,29,12.10
2008,07,14,03,30,12.10
2008,07,14,03,31,12.10
2008,07,14,03,32,12.10
2008,07,14,03,33,12.10
2008,07,14,03,34,12.10
2008,07,14,03,35,12.10
2008,07,14,03,36,12.10
2008,07,14,03,37,12.10
2008,07,14,03,38,12.00
2008,07,14,03,39,12.00
2008,07,14,03,40,12.00
2008,07,14,03,41,12.00
2008,07,14,03,42,12.00
2008,07,14,03,43,11.90
2008,07,14,03,44,11.90
2008,07,14,03,45,11.90
2008,07,14,03,46,11.90
2008,07,14,03,47,11.90
2008,07,14,03,48,11.90
2008,07,14,03,49,11.90
2008,07,14,03,50,11.90
2008,07,14,03,51,11.90
2008,07,14,03,52,11.90
2008,07,14,03,53,11.90
2008,07,14,03,54,11.90
2008,07,14,03,55,11.90
2008,07,14,03,56,11.90
2008,07,14,03,57,11.80
2008,07,14,03,58,11.80
2008,07,14,03,59,11.80
2008,07,14,04,00,11.80
2008,07,14,04,01,11.80
2008,07,14,04,02,11.80
2008,07,14,04,03,11.80
2008,07,14,04,04,11.90
2008,07,14,04,05,11.90
2008,07,14,04,06,11.90
2008,07,14,04,07,11.90
2008,07,14,04,08,11.90
2008,07,14,04,09,11.80
2008,07,14,04,10,11.90
2008,07,14,04,11,11.90
2008,07,14,04,12,11.80
2008,07,14,04,13,11.80
2008,07,14,04,14,11.80
2008,07,14,04,15,11.80
2008,07,14,04,16,11.80
2008,07,14,04,17,11.80
2008,07,14,04,18,11.80
2008,07,14,04,19,11.80
2008,07,14,04,20,11.80
2008,07,14,04,21,11.80
2008,07,14,04,22,11.80
2008,07,14,04,23,11.90
2008,07,14,04,24,11.90
2008,07,14,04,25,11.90
2008,07,14,04,26,11.90
2008,07,14,04,27,11.90
2008,07,14,04,28,11.90
2008,07,14,04,29,11.90
2008,07,14,04,30,11.90
2008,07,14,04,31,11.90
2008,07,14,04,32,11.90
2008,07,14,04,33,11.90
2008,07,14,04,34,11.90
2008,07,14,04,35,11.90
2008,07,14,04,36,11.90
2008,07,14,04,37,11.90
2008,07,14,04,38,11.90
2008,07,14,04,39,11.90
2008,07,14,04,40,11.90
2008,07,14,04,41,11.80
2008,07,14,04,42,11.80
2008,07,14,04,43,11.80
2008,07,14,04,44,11.80
2008,07,14,04,45,11.80
2008,07,14,04,46,11.80
2008,07,14,04,47,11.80
2008,07,14,04,48,11.80
2008,07,14,04,49,11.80
2008,07,14,04,50,11.80
2008,07,14,04,51,11.80
2008,07,14,04,52,11.80
2008,07,14,04,53,11.80
2008,07,14,04,54,11.80
2008,07,14,04,55,11.70
2008,07,14,04,56,11.70
2008,07,14,04,57,11.70
2008,07,14,04,58,11.70
2008,07,14,04,59,11.70
2008,07,14,05,00,11.70
2008,07,14,05,01,11.70
2008,07,14,05,02,11.70
2008,07,14,05,03,11.70
2008,07,14,05,04,11.70
2008,07,14,05,05,11.70
2008,07,14,05,06,11.70
2008,07,14,05,07,11.70
2008,07,14,05,08,11.70
2008,07,14,05,09,11.70
2008,07,14,05,10,11.70
2008,07,14,05,11,11.70
2008,07,14,05,12,11.70
2008,07,14,05,13,11.70
2008,07,14,05,14,11.70
2008,07,14,05,15,11.70
2008,07,14,05,16,11.70
2008,07,14,05,17,11.70
2008,07,14,05,18,11.70
2008,07,14,05,19,11.70
2008,07,14,05,20,11.60
2008,07,14,05,21,11.60
2008,07,14,05,22,11.60
2008,07,14,05,23,11.60
2008,07,14,05,24,11.60
2008,07,14,05,25,11.50
2008,07,14,05,26,11.50
2008,07,14,05,27,11.40
2008,07,14,05,28,11.40
2008,07,14,05,29,11.40
2008,07,14,05,30,11.40
2008,07,14,05,31,11.40
2008,07,14,05,32,11.30
2008,07,14,05,33,11.30
2008,07,14,05,34,11.30
2008,07,14,05,35,11.30
2008,07,14,05,36,11.30
2008,07,14,05,37,11.30
2008,07,14,05,38,11.20
2008,07,14,05,39,11.20
2008,07,14,05,40,11.20
2008,07,14,05,41,11.20
2008,07,14,05,42,11.10
2008,07,14,05,43,11.10
2008,07,14,05,44,11.10
2008,07,14,05,45,11.00
2008,07,14,05,46,11.00
2008,07,14,05,47,11.00
2008,07,14,05,48,11.00
2008,07,14,05,49,11.00
2008,07,14,05,50,11.00
2008,07,14,05,51,11.00
2008,07,14,05,52,11.00
2008,07,14,05,53,11.00
2008,07,14,05,54,11.00
2008,07,14,05,55,10.90
2008,07,14,05,56,10.90
2008,07,14,05,57,10.90
2008,07,14,05,58,10.90
2008,07,14,05,59,10.90
2008,07,14,06,00,10.90
2008,07,14,06,01,10.90
2008,07,14,06,02,10.90
2008,07,14,06,03,10.90
2008,07,14,06,04,10.90
2008,07,14,06,05,10.90
2008,07,14,06,06,10.90
2008,07,14,06,07,10.90
2008,07,14,06,08,10.90
2008,07,14,06,09,10.90
2008,07,14,06,10,10.90
2008,07,14,06,11,10.90
2008,07,14,06,12,10.90
2008,07,14,06,13,10.90
2008,07,14,06,14,10.90
2008,07,14,06,15,10.80
2008,07,14,06,16,10.80
2008,07,14,06,17,10.80
2008,07,14,06,18,10.80
2008,07,14,06,19,10.80
2008,07,14,06,20,10.80
2008,07,14,06,21,10.80
2008,07,14,06,22,10.80
2008,07,14,06,23,10.80
2008,07,14,06,24,10.80
2008,07,14,06,25,10.80
2008,07,14,06,26,10.80
2008,07,14,06,27,10.80
2008,07,14,06,28,10.80
2008,07,14,06,29,10.80
2008,07,14,06,30,10.80
2008,07,14,06,31,10.80
2008,07,14,06,32,10.80
2008,07,14,06,33,10.80
2008,07,14,06,34,10.90
2008,07,14,06,35,10.90
2008,07,14,06,36,10.90
2008,07,14,06,37,10.90
2008,07,14,06,38,10.90
2008,07,14,06,39,11.00
2008,07,14,06,40,11.00
2008,07,14,06,41,11.00
2008,07,14,06,42,11.00
2008,07,14,06,43,11.10
2008,07,14,06,44,11.10
2008,07,14,06,45,11.10
2008,07,14,06,46,11.20
2008,07,14,06,47,11.20
2008,07,14,06,48,11.20
2008,07,14,06,49,11.30
2008,07,14,06,50,11.30
2008,07,14,06,51,11.30
2008,07,14,06,52,11.40
2008,07,14,06,53,11.40
2008,07,14,06,54,11.40
2008,07,14,06,55,11.50
2008,07,14,06,56,11.50
2008,07,14,06,57,11.60
2008,07,14,06,58,11.70
2008,07,14,06,59,11.70
2008,07,14,07,00,11.80
2008,07,14,07,01,11.90
2008,07,14,07,02,11.90
2008,07,14,07,03,12.00
2008,07,14,07,04,12.00
2008,07,14,07,05,12.10
2008,07,14,07,06,12.10
2008,07,14,07,07,12.10
2008,07,14,07,08,12.20
2008,07,14,07,09,12.20
2008,07,14,07,10,12.20
2008,07,14,07,11,12.20
2008,07,14,07,12,12.30
2008,07,14,07,13,12.30
2008,07,14,07,14,12.40
2008,07,14,07,15,12.50
2008,07,14,07,16,12.50
2008,07,14,07,17,12.60
2008,07,14,07,18,12.60
2008,07,14,07,19,12.70
2008,07,14,07,20,12.70
2008,07,14,07,21,12.70
2008,07,14,07,22,12.70
2008,07,14,07,23,12.70
2008,07,14,07,24,12.70
2008,07,14,07,25,12.80
2008,07,14,07,26,12.80
2008,07,14,07,27,12.90
2008,07,14,07,28,13.00
2008,07,14,07,29,13.10
2008,07,14,07,30,13.20
2008,07,14,07,31,13.30
2008,07,14,07,32,13.40
2008,07,14,07,33,13.50
2008,07,14,07,34,13.50
2008,07,14,07,35,13.60
2008,07,14,07,36,13.60
2008,07,14,07,37,13.60
2008,07,14,07,38,13.60
2008,07,14,07,39,13.50
2008,07,14,07,40,13.50
2008,07,14,07,41,13.40
2008,07,14,07,42,13.40
2008,07,14,07,43,13.40
2008,07,14,07,44,13.40
2008,07,14,07,45,13.40
2008,07,14,07,46,13.40
2008,07,14,07,47,13.40
2008,07,14,07,48,13.40
2008,07,14,07,49,13.40
2008,07,14,07,50,13.50
2008,07,14,07,51,13.50
2008,07,14,07,52,13.60
2008,07,14,07,53,13.60
2008,07,14,07,54,13.60
2008,07,14,07,55,13.70
2008,07,14,07,56,13.70
2008,07,14,07,57,13.80
2008,07,14,07,58,13.90
2008,07,14,07,59,14.00
2008,07,14,08,00,14.10
2008,07,14,08,01,14.20
2008,07,14,08,02,14.40
2008,07,14,08,03,14.50
2008,07,14,08,04,14.70
2008,07,14,08,05,14.80
2008,07,14,08,06,14.90
2008,07,14,08,07,15.00
2008,07,14,08,08,15.00
2008,07,14,08,09,15.00
2008,07,14,08,10,15.00
2008,07,14,08,11,15.00
2008,07,14,08,12,15.00
2008,07,14,08,13,15.00
2008,07,14,08,14,15.00
2008,07,14,08,15,15.00
2008,07,14,08,16,15.00
2008,07,14,08,17,15.10
2008,07,14,08,18,15.20
2008,07,14,08,19,15.30
2008,07,14,08,20,15.30
2008,07,14,08,21,15.40
2008,07,14,08,22,15.50
2008,07,14,08,23,15.60
2008,07,14,08,24,15.60
2008,07,14,08,25,15.70
2008,07,14,08,26,15.80
2008,07,14,08,27,15.90
2008,07,14,08,28,15.90
2008,07,14,08,29,16.00
2008,07,14,08,30,16.10
2008,07,14,08,31,16.10
2008,07,14,08,32,16.10
2008,07,14,08,33,16.10
2008,07,14,08,34,16.10
2008,07,14,08,35,16.10
2008,07,14,08,36,16.20
2008,07,14,08,37,16.20
2008,07,14,08,38,16.30
2008,07,14,08,39,16.30
2008,07,14,08,40,16.40
2008,07,14,08,41,16.50
2008,07,14,08,42,16.60
2008,07,14,08,43,16.60
2008,07,14,08,44,16.60
2008,07,14,08,45,16.60
2008,07,14,08,46,16.60
2008,07,14,08,47,16.60
2008,07,14,08,48,16.70
2008,07,14,08,49,16.70
2008,07,14,08,50,16.70
2008,07,14,08,51,16.70
2008,07,14,08,52,16.70
2008,07,14,08,53,16.70
2008,07,14,08,54,16.80
2008,07,14,08,55,16.90
2008,07,14,08,56,16.90
2008,07,14,08,57,16.90
2008,07,14,08,58,16.90
2008,07,14,08,59,16.90
2008,07,14,09,00,16.90
2008,07,14,09,01,16.90
2008,07,14,09,02,16.90
2008,07,14,09,03,16.90
2008,07,14,09,04,16.90
2008,07,14,09,05,16.90
2008,07,14,09,06,16.90
2008,07,14,09,07,17.00
2008,07,14,09,08,17.00
2008,07,14,09,09,17.10
2008,07,14,09,10,17.10
2008,07,14,09,11,17.20
2008,07,14,09,12,17.20
2008,07,14,09,13,17.20
2008,07,14,09,14,17.10
2008,07,14,09,15,17.10
2008,07,14,09,16,17.10
2008,07,14,09,17,17.10
2008,07,14,09,18,17.10
2008,07,14,09,19,17.20
2008,07,14,09,20,17.30
2008,07,14,09,21,17.40
2008,07,14,09,22,17.40
2008,07,14,09,23,17.40
2008,07,14,09,24,17.40
2008,07,14,09,25,17.40
2008,07,14,09,26,17.40
2008,07,14,09,27,17.40
2008,07,14,09,28,17.50
2008,07,14,09,29,17.50
2008,07,14,09,30,17.50
2008,07,14,09,31,17.50
2008,07,14,09,32,17.40
2008,07,14,09,33,17.50
2008,07,14,09,34,17.50
2008,07,14,09,35,17.60
2008,07,14,09,36,17.60
2008,07,14,09,37,17.70
2008,07,14,09,38,17.70
2008,07,14,09,39,17.80
2008,07,14,09,40,17.80
2008,07,14,09,41,17.80
2008,07,14,09,42,17.90
2008,07,14,09,43,17.90
2008,07,14,09,44,17.80
2008,07,14,09,45,17.80
2008,07,14,09,46,17.70
2008,07,14,09,47,17.70
2008,07,14,09,48,17.60
2008,07,14,09,49,17.50
2008,07,14,09,50,17.40
2008,07,14,09,51,17.40
2008,07,14,09,52,17.40
2008,07,14,09,53,17.30
2008,07,14,09,54,17.30
2008,07,14,09,55,17.20
2008,07,14,09,56,17.20
2008,07,14,09,57,17.30
2008,07,14,09,58,17.30
2008,07,14,09,59,17.40
2008,07,14,10,00,17.40
2008,07,14,10,01,17.40
2008,07,14,10,02,17.60
2008,07,14,10,03,17.70
2008,07,14,10,04,17.70
2008,07,14,10,05,17.80
2008,07,14,10,06,17.80
2008,07,14,10,07,17.90
2008,07,14,10,08,18.00
2008,07,14,10,09,18.10
2008,07,14,10,10,18.20
2008,07,14,10,11,18.30
2008,07,14,10,12,18.30
2008,07,14,10,13,18.30
2008,07,14,10,14,18.30
2008,07,14,10,15,18.20
2008,07,14,10,16,18.20
2008,07,14,10,17,18.20
2008,07,14,10,18,18.20
2008,07,14,10,19,18.30
2008,07,14,10,20,18.30
2008,07,14,10,21,18.40
2008,07,14,10,22,18.40
2008,07,14,10,23,18.30
2008,07,14,10,24,18.20
2008,07,14,10,25,18.10
2008,07,14,10,26,18.00
2008,07,14,10,27,17.80
2008,07,14,10,28,17.80
2008,07,14,10,29,17.80
2008,07,14,10,30,17.90
2008,07,14,10,31,18.00
2008,07,14,10,32,18.10
2008,07,14,10,33,18.20
2008,07,14,10,34,18.20
2008,07,14,10,35,18.20
2008,07,14,10,36,18.20
2008,07,14,10,37,18.20
2008,07,14,10,38,18.20
2008,07,14,10,39,18.10
2008,07,14,10,40,17.90
2008,07,14,10,41,17.80
2008,07,14,10,42,17.80
2008,07,14,10,43,17.80
2008,07,14,10,44,17.80
2008,07,14,10,45,17.80
2008,07,14,10,46,17.80
2008,07,14,10,47,17.70
2008,07,14,10,48,17.60
2008,07,14,10,49,17.60
2008,07,14,10,50,17.60
2008,07,14,10,51,17.50
2008,07,14,10,52,17.50
2008,07,14,10,53,17.50
2008,07,14,10,54,17.50
2008,07,14,10,55,17.60
2008,07,14,10,56,17.60
2008,07,14,10,57,17.60
2008,07,14,10,58,17.50
2008,07,14,10,59,17.40
2008,07,14,11,00,17.40
2008,07,14,11,01,17.40
2008,07,14,11,02,17.40
2008,07,14,11,03,17.40
2008,07,14,11,04,17.40
2008,07,14,11,05,17.50
2008,07,14,11,06,17.50
2008,07,14,11,07,17.60
2008,07,14,11,08,17.70
2008,07,14,11,09,17.70
2008,07,14,11,10,17.80
2008,07,14,11,11,17.80
2008,07,14,11,12,17.80
2008,07,14,11,13,17.70
2008,07,14,11,14,17.70
2008,07,14,11,15,17.80
2008,07,14,11,16,17.80
2008,07,14,11,17,17.80
2008,07,14,11,18,17.80
2008,07,14,11,19,17.80
2008,07,14,11,20,17.80
2008,07,14,11,21,17.80
2008,07,14,11,22,17.90
2008,07,14,11,23,17.90
2008,07,14,11,24,18.00
2008,07,14,11,25,17.90
2008,07,14,11,26,17.90
2008,07,14,11,27,17.90
2008,07,14,11,28,17.80
2008,07,14,11,29,17.80
2008,07,14,11,30,17.80
2008,07,14,11,31,17.80
2008,07,14,11,32,17.80
2008,07,14,11,33,17.80
2008,07,14,11,34,17.80
2008,07,14,11,35,17.90
2008,07,14,11,36,18.00
2008,07,14,11,37,18.10
2008,07,14,11,38,18.20
2008,07,14,11,39,18.30
2008,07,14,11,40,18.40
2008,07,14,11,41,18.50
2008,07,14,11,42,18.60
2008,07,14,11,43,18.70
2008,07,14,11,44,18.80
2008,07,14,11,45,18.90
2008,07,14,11,46,19.00
2008,07,14,11,47,19.10
2008,07,14,11,48,19.10
2008,07,14,11,49,19.10
2008,07,14,11,50,19.10
2008,07,14,11,51,19.10
2008,07,14,11,52,19.10
2008,07,14,11,53,19.10
2008,07,14,11,54,19.00
2008,07,14,11,55,19.10
2008,07,14,11,56,19.10
2008,07,14,11,57,19.20
2008,07,14,11,58,19.30
2008,07,14,11,59,19.50
2008,07,14,12,00,19.60
2008,07,14,12,01,19.70
2008,07,14,12,02,19.80
2008,07,14,12,03,19.80
2008,07,14,12,04,19.80
2008,07,14,12,05,19.90
2008,07,14,12,06,20.00
2008,07,14,12,07,20.00
2008,07,14,12,08,20.00
2008,07,14,12,09,19.90
2008,07,14,12,10,19.90
2008,07,14,12,11,19.80
2008,07,14,12,12,19.70
2008,07,14,12,13,19.60
2008,07,14,12,14,19.50
2008,07,14,12,15,19.40
2008,07,14,12,16,19.40
2008,07,14,12,17,19.30
2008,07,14,12,18,19.30
2008,07,14,12,19,19.30
2008,07,14,12,20,19.30
2008,07,14,12,21,19.20
2008,07,14,12,22,19.10
2008,07,14,12,23,19.00
2008,07,14,12,24,18.90
2008,07,14,12,25,18.90
2008,07,14,12,26,18.90
2008,07,14,12,27,19.00
2008,07,14,12,28,19.10
2008,07,14,12,29,19.20
2008,07,14,12,30,19.30
2008,07,14,12,31,19.40
2008,07,14,12,32,19.50
2008,07,14,12,33,19.60
2008,07,14,12,34,19.70
2008,07,14,12,35,19.70
2008,07,14,12,36,19.80
2008,07,14,12,37,19.80
2008,07,14,12,38,19.70
2008,07,14,12,39,19.60
2008,07,14,12,40,19.50
2008,07,14,12,41,19.40
2008,07,14,12,42,19.30
2008,07,14,12,43,19.30
2008,07,14,12,44,19.30
2008,07,14,12,45,19.50
2008,07,14,12,46,19.60
2008,07,14,12,47,19.70
2008,07,14,12,48,19.70
2008,07,14,12,49,19.70
2008,07,14,12,50,19.70
2008,07,14,12,51,19.70
2008,07,14,12,52,19.60
2008,07,14,12,53,19.60
2008,07,14,12,54,19.50
2008,07,14,12,55,19.50
2008,07,14,12,56,19.50
2008,07,14,12,57,19.50
2008,07,14,12,58,19.70
2008,07,14,12,59,19.80
2008,07,14,13,00,19.90
2008,07,14,13,01,20.00
2008,07,14,13,02,20.10
2008,07,14,13,03,20.10
2008,07,14,13,04,20.10
2008,07,14,13,05,20.10
2008,07,14,13,06,20.00
2008,07,14,13,07,20.00
2008,07,14,13,08,20.10
2008,07,14,13,09,20.10
2008,07,14,13,10,20.20
2008,07,14,13,11,20.30
2008,07,14,13,12,20.40
2008,07,14,13,13,20.50
2008,07,14,13,14,20.60
2008,07,14,13,15,20.70
2008,07,14,13,16,20.80
2008,07,14,13,17,20.90
2008,07,14,13,18,20.90
2008,07,14,13,19,21.10
2008,07,14,13,20,21.20
2008,07,14,13,21,21.20
2008,07,14,13,22,21.10
2008,07,14,13,23,21.00
2008,07,14,13,24,20.90
2008,07,14,13,25,21.00
2008,07,14,13,26,21.10
2008,07,14,13,27,21.20
2008,07,14,13,28,21.40
2008,07,14,13,29,21.50
2008,07,14,13,30,21.70
2008,07,14,13,31,21.80
2008,07,14,13,32,21.80
2008,07,14,13,33,21.80
2008,07,14,13,34,21.90
2008,07,14,13,35,22.10
2008,07,14,13,36,22.10
2008,07,14,13,37,22.20
2008,07,14,13,38,22.30
2008,07,14,13,39,22.50
2008,07,14,13,40,22.60
2008,07,14,13,41,22.60
2008,07,14,13,42,22.60
2008,07,14,13,43,22.50
2008,07,14,13,44,22.50
2008,07,14,13,45,22.60
2008,07,14,13,46,22.70
2008,07,14,13,47,22.70
2008,07,14,13,48,22.80
2008,07,14,13,49,22.90
2008,07,14,13,50,23.00
2008,07,14,13,51,23.00
2008,07,14,13,52,23.00
2008,07,14,13,53,23.00
2008,07,14,13,54,23.00
2008,07,14,13,55,23.00
2008,07,14,13,56,22.90
2008,07,14,13,57,23.00
2008,07,14,13,58,23.00
2008,07,14,13,59,23.00
2008,07,14,14,00,23.00
2008,07,14,14,01,23.00
2008,07,14,14,02,23.00
2008,07,14,14,03,23.10
2008,07,14,14,04,23.10
2008,07,14,14,05,23.10
2008,07,14,14,06,23.10
2008,07,14,14,07,23.00
2008,07,14,14,08,23.00
2008,07,14,14,09,22.90
2008,07,14,14,10,22.70
2008,07,14,14,11,22.60
2008,07,14,14,12,22.50
2008,07,14,14,13,22.50
2008,07,14,14,14,22.40
2008,07,14,14,15,22.40
2008,07,14,14,16,22.40
2008,07,14,14,17,22.30
2008,07,14,14,18,22.20
2008,07,14,14,19,22.20
2008,07,14,14,20,22.20
2008,07,14,14,21,22.20
2008,07,14,14,22,22.20
2008,07,14,14,23,22.20
2008,07,14,14,24,22.20
2008,07,14,14,25,22.30
2008,07,14,14,26,22.30
2008,07,14,14,27,22.40
2008,07,14,14,28,22.40
2008,07,14,14,29,22.50
2008,07,14,14,30,22.70
2008,07,14,14,31,22.80
2008,07,14,14,32,22.80
2008,07,14,14,33,22.90
2008,07,14,14,34,23.00
2008,07,14,14,35,23.20
2008,07,14,14,36,23.30
2008,07,14,14,37,23.40
2008,07,14,14,38,23.50
2008,07,14,14,39,23.60
2008,07,14,14,40,23.70
2008,07,14,14,41,23.70
2008,07,14,14,42,23.70
2008,07,14,14,43,23.70
2008,07,14,14,44,23.60
2008,07,14,14,45,23.50
2008,07,14,14,46,23.50
2008,07,14,14,47,23.40
2008,07,14,14,48,23.40
2008,07,14,14,49,23.40
2008,07,14,14,50,23.50
2008,07,14,14,51,23.60
2008,07,14,14,52,23.70
2008,07,14,14,53,23.70
2008,07,14,14,54,23.70
2008,07,14,14,55,23.60
2008,07,14,14,56,23.50
2008,07,14,14,57,23.40
2008,07,14,14,58,23.30
2008,07,14,14,59,23.10
2008,07,14,15,00,22.90
2008,07,14,15,01,22.80
2008,07,14,15,02,22.80
2008,07,14,15,03,22.70
2008,07,14,15,04,22.60
2008,07,14,15,05,22.60
2008,07,14,15,06,22.50
2008,07,14,15,07,22.40
2008,07,14,15,08,22.30
2008,07,14,15,09,22.20
2008,07,14,15,10,22.20
2008,07,14,15,11,22.10
2008,07,14,15,12,22.00
2008,07,14,15,13,22.00
2008,07,14,15,14,22.00
2008,07,14,15,15,22.00
2008,07,14,15,16,22.00
2008,07,14,15,17,22.00
2008,07,14,15,18,21.90
2008,07,14,15,19,22.00
2008,07,14,15,20,22.00
2008,07,14,15,21,22.00
2008,07,14,15,22,22.00
2008,07,14,15,23,21.90
2008,07,14,15,24,21.90
2008,07,14,15,25,21.90
2008,07,14,15,26,21.80
2008,07,14,15,27,21.80
2008,07,14,15,28,21.80
2008,07,14,15,29,21.80
2008,07,14,15,30,21.80
2008,07,14,15,31,21.90
2008,07,14,15,32,22.00
2008,07,14,15,33,22.20
2008,07,14,15,34,22.30
2008,07,14,15,35,22.30
2008,07,14,15,36,22.40
2008,07,14,15,37,22.40
2008,07,14,15,38,22.30
2008,07,14,15,39,22.30
2008,07,14,15,40,22.30
2008,07,14,15,41,22.30
2008,07,14,15,42,22.30
2008,07,14,15,43,22.30
2008,07,14,15,44,22.30
2008,07,14,15,45,22.30
2008,07,14,15,46,22.30
2008,07,14,15,47,22.20
2008,07,14,15,48,22.20
2008,07,14,15,49,22.30
2008,07,14,15,50,22.30
2008,07,14,15,51,22.30
2008,07,14,15,52,22.40
2008,07,14,15,53,22.40
2008,07,14,15,54,22.40
2008,07,14,15,55,22.40
2008,07,14,15,56,22.50
2008,07,14,15,57,22.60
2008,07,14,15,58,22.60
2008,07,14,15,59,22.70
2008,07,14,16,00,22.80
2008,07,14,16,01,22.90
2008,07,14,16,02,23.00
2008,07,14,16,03,23.10
2008,07,14,16,04,23.10
2008,07,14,16,05,23.20
2008,07,14,16,06,23.20
2008,07,14,16,07,23.20
2008,07,14,16,08,23.30
2008,07,14,16,09,23.30
2008,07,14,16,10,23.30
2008,07,14,16,11,23.40
2008,07,14,16,12,23.40
2008,07,14,16,13,23.50
2008,07,14,16,14,23.50
2008,07,14,16,15,23.60
2008,07,14,16,16,23.70
2008,07,14,16,17,23.80
2008,07,14,16,18,23.80
2008,07,14,16,19,23.90
2008,07,14,16,20,24.10
2008,07,14,16,21,24.10
2008,07,14,16,22,24.20
2008,07,14,16,23,24.20
2008,07,14,16,24,24.20
2008,07,14,16,25,24.20
2008,07,14,16,26,24.20
2008,07,14,16,27,24.20
2008,07,14,16,28,24.20
2008,07,14,16,29,24.20
2008,07,14,16,30,24.20
2008,07,14,16,31,24.20
2008,07,14,16,32,24.20
2008,07,14,16,33,24.30
2008,07,14,16,34,24.30
2008,07,14,16,35,24.30
2008,07,14,16,36,24.20
2008,07,14,16,37,24.00
2008,07,14,16,38,23.80
2008,07,14,16,39,23.50
2008,07,14,16,40,23.30
2008,07,14,16,41,23.10
2008,07,14,16,42,22.90
2008,07,14,16,43,22.60
2008,07,14,16,44,22.40
2008,07,14,16,45,22.20
2008,07,14,16,46,22.20
2008,07,14,16,47,22.10
2008,07,14,16,48,22.00
2008,07,14,16,49,21.90
2008,07,14,16,50,21.90
2008,07,14,16,51,21.90
2008,07,14,16,52,21.90
2008,07,14,16,53,21.90
2008,07,14,16,54,21.90
2008,07,14,16,55,22.00
2008,07,14,16,56,22.00
2008,07,14,16,57,22.10
2008,07,14,16,58,22.20
2008,07,14,16,59,22.30
2008,07,14,17,00,22.40
2008,07,14,17,01,22.50
2008,07,14,17,02,22.70
2008,07,14,17,03,22.80
2008,07,14,17,04,22.90
2008,07,14,17,05,23.00
2008,07,14,17,06,23.10
2008,07,14,17,07,23.20
2008,07,14,17,08,23.40
2008,07,14,17,09,23.40
2008,07,14,17,10,23.40
2008,07,14,17,11,23.40
2008,07,14,17,12,23.50
2008,07,14,17,13,23.50
2008,07,14,17,14,23.50
2008,07,14,17,15,23.40
2008,07,14,17,16,23.40
2008,07,14,17,17,23.40
2008,07,14,17,18,23.40
2008,07,14,17,19,23.30